Regional Weather Roundup
Issued by NWS New Orleans/Baton Rouge, LA

Home | Current Version | Previous Version | Text Only | Print | Product List | Glossary On
Versions: 1 2 3 4 5 6 7 8 9 10 11 12 13 14 15 16 17 18 19 20 21 22 23 24 25 26 27 28 29 30 31 32 33 34 35 36 37 38 39 40 41 42 43 44 45 46 47 48 49 50
986
ASUS44 KLIX 230001
RWRLIX
NEW ORLEANS REGIONAL WEATHER ROUNDUP
NATIONAL WEATHER SERVICE NEW ORLEANS LA
600 PM CST SAT NOV 22 2014

NOTE: "FAIR" INDICATES FEW OR NO CLOUDS BELOW 12,000 FEET WITH NO
      SIGNIFICANT WEATHER AND/OR OBSTRUCTIONS TO VISIBILITY.
      SKY/WX - SKY CONDITION AND SIGNIFICANT WEATHER.
      TMP - AIR TEMPERATURE.     DP    - DEWPOINT TEMPERATURE.
      RH  - RELATIVE HUMIDITY.   PRES  - PRESSURE.
      HI  - HEAT INDEX.          WCI   - WIND CHILL INDEX.

*  THESE STATIONS ARE NOT NWS OR FAA STATIONS AND ARE NOT UNDER
   NWS QUALITY CONTROL.

LAZ038-040-048-061>063-065>067-069-230100-
SOUTHEAST LOUISIANA

CITY           SKY/WX    TMP DP  RH WIND       PRES   REMARKS
N.O. AUDUBON     N/A     62  59  90 MISG        N/A
6HR MIN TEMP:  61; 6HR MAX TEMP:  70;

N.O. INTL ARPT CLOUDY    63  59  87 E10       30.01F
6HR MIN TEMP:  63; 6HR MAX TEMP:  68;

N.O. LAKEFRONT CLOUDY    62  58  86 E13       30.03F
6HR MIN TEMP:  61; 6HR MAX TEMP:  66;

N.O. DOWNTOWN* CLOUDY    61  55  82 NE9       30.02F
6HR MIN TEMP:  61; 6HR MAX TEMP:  66;

SLIDELL        CLOUDY    64  59  83 E7        30.03F
6HR MIN TEMP:  64; 6HR MAX TEMP:  69;

BATON ROUGE    CLOUDY    64  59  83 E14G22    30.00F
6HR MIN TEMP:  64; 6HR MAX TEMP:  70;

BOOTHVILLE     CLOUDY    66  66 100 E6        30.03S
6HR MIN TEMP:  66; 6HR MAX TEMP:  69;

BELLE CHASSE   CLOUDY    62  58  86 E9        30.00F
6HR MIN TEMP:  62; 6HR MAX TEMP:  69;

BOGALUSA*        N/A     64  56  77 E5        30.06S
6HR MIN TEMP:  64; 6HR MAX TEMP:  71;

NEW ROADS*     NOT AVBL
GONZALES*      NOT AVBL
HAMMOND*       NOT AVBL
HOUMA*         MOCLDY    64  63  94 E10       29.99F
PORT FOURCHON* CLEAR     68  66  94 E13       30.01F

$$

MSZ070-080>082-230100-
SOUTHERN MISSISSIPPI

CITY           SKY/WX    TMP DP  RH WIND       PRES   REMARKS
MCCOMB         CLOUDY    62  53  72 E5        30.04R
6HR MIN TEMP:  62; 6HR MAX TEMP:  69;

GULFPORT       CLOUDY    64  59  83 E12       30.06S
6HR MIN TEMP:  64; 6HR MAX TEMP:  67;

BILOXI         CLOUDY    64  60  87 E10       30.07R
6HR MIN TEMP:  63; 6HR MAX TEMP:  68;

PASCAGOULA     CLOUDY    63  59  87 E9        30.08S
6HR MIN TEMP:  63; 6HR MAX TEMP:  70;


$$

COASTAL OBSERVATIONS
LAKE AND NEARSHORE STATIONS

STATION/POSITION TIME  TEMP    WIND        PRES    WAVE
                       AIR SEA DIR/SP/G            HT/PER
                 (UTC) (F)     (DEG/KT/KT) (MB)    (FT/S)
PASCAGOULA       2300   62      80/ 16/ 21 1017.7
WAVELAND YACHT   2300   63     100/ 16/ 20 1016.8
GRAND ISLE       2300   65 61   80/  8/ 10 1016.6
SOUTHWEST PASS   2300   69 72              1016.6
NEW CANAL        2300   62 55   80/  7/ 11 1016.8
SHELL BEACH      2300   60 53   60/ 10/ 11 1016.8

OFFSHORE STATIONS

STATION/POSITION TIME  TEMP    WIND        PRES    WAVE
                       AIR SEA DIR/SP/G            HT/PER
                 (UTC) (F)     (DEG/KT/KT) (MB)    (FT/S)

$$




USA.gov is the U.S. government's official web portal to all federal, state and local government web resources and services.